This is the latest recevied weather packets stored in our database for station/object DJ4CK-1. If no packets are shown the sender has not sent any weather packets the latest 1 day(s).
| Time | Temp. | Humidity | Pressure | Rain* | Wind** | Luminosity | Snow |
|---|---|---|---|---|---|---|---|
| 1778063643 | 17.22° C | 56% | 1007.1 hPa | 0 mm | - | - | - |
| 1778063464 | 17.22° C | 55% | 1007.1 hPa | 0 mm | - | - | - |
| 1778063404 | 17.22° C | 55% | 1007.1 hPa | 0 mm | - | - | - |
| 1778063284 | 17.78° C | 53% | 1007.1 hPa | 0 mm | - | - | - |
| 1778063224 | 18.33° C | 52% | 1007.1 hPa | 0 mm | - | - | - |
| 1778063164 | 18.33° C | 49% | 1007.1 hPa | 0 mm | - | - | - |
| 1778063044 | 18.89° C | 49% | 1007.1 hPa | 0 mm | - | - | - |
| 1778062984 | 18.33° C | 49% | 1007.1 hPa | 0 mm | - | - | - |
| 1778062923 | 18.33° C | 49% | 1007.1 hPa | 0 mm | - | - | - |
| 1778062684 | 18.33° C | 48% | 1007.2 hPa | 0 mm | - | - | - |
| 1778062624 | 18.33° C | 49% | 1007.2 hPa | 0 mm | - | - | - |
| 1778062024 | 19.44° C | 47% | 1007.2 hPa | 0 mm | - | - | - |
| 1778061724 | 18.33° C | 48% | 1007.2 hPa | 0 mm | - | - | - |
| 1778061664 | 18.33° C | 48% | 1007.2 hPa | 0 mm | - | - | - |
| 1778061364 | 18.89° C | 50% | 1007.2 hPa | 0 mm | - | - | - |
| 1778061304 | 18.33° C | 50% | 1007.2 hPa | 0 mm | - | - | - |
| 1778061244 | 18.33° C | 51% | 1007.2 hPa | 0 mm | - | - | - |
| 1778061184 | 17.78° C | 50% | 1007.3 hPa | 0 mm | - | - | - |
| 1778061123 | 17.78° C | 49% | 1007.3 hPa | 0 mm | - | - | - |
| 1778060884 | 17.78° C | 49% | 1007.3 hPa | 0 mm | - | - | - |
| 1778060824 | 18.33° C | 49% | 1007.3 hPa | 0 mm | - | - | - |
| 1778060763 | 18.33° C | 50% | 1007.3 hPa | 0 mm | - | - | - |
| 1778060463 | 17.78° C | 50% | 1007.3 hPa | 0 mm | - | - | - |
| 1778060164 | 17.22° C | 50% | 1007.4 hPa | 0 mm | - | - | - |
| 1778060104 | 17.22° C | 50% | 1007.4 hPa | 0 mm | - | - | - |
* Rain latest hour (hover to see other rain measurements)
** Current wind speed in m/s (hover to see current wind gust speed)